www.pogodaiklimat.ru

Погода и климат >> Архив погоды >> Украина >> Золочев


ПОГОДА в Золочеве

  • Прогноз погоды в Золочеве
  • Монитор погоды в Золочеве

АРХИВ ПОГОДЫ в Золочеве

Время (UTC), дата Ветер
(напр.,м/с)
 
Видим.   Явления Облачность Т
(С)
Тd
(С)
f
(%)
Тe
(С)
Тes
(С)
Комфортность P
(гПа)
Po
(гПа)
Тmin
(С)
Tmax
(С)
R
(мм)
R24
(мм)
S
(см)
12 19.06 СВ 3 24 км 6/6 1000 м
[Cu med, cong]
+30.0 +16.1 43 +33 +38 душно 1014.0 996.1
18 19.06 С 3 24 км ясно +23.8 +15.9 61 +27 +27 жарко 1014.5 996.2 +30.0
21 19.06 С 1 20 км ясно +19.1 +15.2 78 +22 +22 комфорт 1015.5 996.9
00 20.06 С 1 20 км 3/0
[]
+18.0 +13.0 73 +19 +19 1016.2 997.5
03 20.06 С 1 20 км 4/0
[Cc]
+18.0 +14.9 82 +19 +20 1016.6 997.9
06 20.06 В 2 22 км 8/3 600 м
[Cu hum Cs]
+25.2 +16.4 58 +29 +34 душно 1016.1 997.9 +18.0
09 20.06 В 2 24 км 8/5 600 м
[Cu hum Cs]
+29.2 +13.7 39 +31 +39 жарко 1015.6 997.6
12 20.06 ЮВ 2 25 км 8/5 600 м
[Cu hum Ci]
+30.3 +11.6 32 +31 +37 жарко 1015.0 997.1
15 20.06 В 2 26 км 8/3 600 м
[Cu hum Ci]
+29.0 +13.2 38 +31 +33 жарко 1014.5 996.5
18 20.06 СВ 2 24 км 3/1 600 м
[Sc diur, vesp Ci fib]
+24.2 +15.4 58 +27 +27 жарко 1014.9 996.6 +30.7
21 20.06 С 1 20 км 1/0
[Ac trans]
+21.6 +14.4 64 +25 +25 комфорт 1016.2 997.8
00 21.06 С 1 10 км 8/0
[Ac As Cs]
+18.6 +13.9 74 +20 +20 1017.2 998.5
03 21.06 С 1 20 км 9/9 600 м
[Sc]
+19.0 +15.3 79 +21 +21 комфорт 1017.6 999.0
06 21.06 СВ 1 21 км 6/3 1000 м
[Cu hum Ci fib]
+26.3 +15.7 52 +29 +36 жарко 1017.5 999.3 +18.1
09 21.06 В 3 23 км 8/8 1000 м
[Cu med, cong]
+29.8 +12.3 34 +31 +34 жарко 1016.9 998.9
12 21.06 В 3 24 км 6/6 1000 м
[Cu med, cong]
+31.5 +12.5 31 +32 +37 жарко 1016.3 998.4
15 21.06 СВ 2 25 км 4/4 1000 м
[Cu hum]
+31.6 +14.2 35 +33 +35 жарко 1015.4 997.6
18 21.06 С 2 24 км 3/0
[Cc]
+25.8 +14.0 48 +28 +28 жарко 1015.7 997.5 +32.6
21 21.06 СВ 1 20 км 8/0
[Ac As]
+23.8 +14.3 55 +26 +26 жарко 1016.8 998.5
00 22.06 С 1 20 км 8/6 600 м
[Sc Ac trans]
+21.4 +15.0 67 +25 +25 комфорт 1017.0 998.5
03 22.06 С 1 23 км 3/3 600 м
[Sc]
+21.1 +15.2 69 +24 +25 комфорт 1017.4 998.9
06 22.06 В 1 25 км 6/0
[Ac As Cc]
+28.2 +15.5 46 +31 +37 душно 1017.1 999.0 +20.0
09 22.06 ЮВ 3 26 км 9/8 600 м
[Cu med, cong Ci fib]
+31.9 +11.6 29 +32 +35 жарко 1016.9 999.1
12 22.06 ЮВ 3 27 км 9/8 600 м
[Cu med, cong Ci fib]
+32.8 +9.8 24 +32 +34 жарко 1016.2 998.4
15 22.06 В 1 27 км 9/8 600 м
[Cu med, cong Ci fib]
+32.9 +14.1 32 +34 +35 очень
жарко
1015.2 997.4
18 22.06 СВ 1 25 км 9/8 600 м
[Cu med, cong Ci fib]
+27.7 +16.6 51 +31 +31 душно 1015.8 997.7 +34.5
21 22.06 В 1 20 км 3/0
[Ac trans]
+21.0 +16.0 73 +26 +26 душно 1016.9 998.4
00 23.06 СЗ 1 20 км 9/0
[Ac As]
+17.8 +15.6 87 +19 +19 1017.1 998.4
03 23.06 штиль 0 20 км 9/3 600 м
[Cu med, cong Cs]
+19.7 +15.7 78 +22 +22 комфорт 1017.5 998.9
06 23.06 В 1 22 км 10/6 600 м
[Sc Ac As]
+27.1 +16.3 52 +31 +32 душно 1016.8 998.7 +17.0
09 23.06 В 2 23 км 9/6 600 м
[Sc Ac As]
+31.4 +15.0 37 +34 +37 душно 1016.4 998.5
12 23.06 СЗ 1 24 км 8/4 600 м
[Sc Ac As]
+32.8 +16.4 37 +36 +41 очень
душно
1015.3 997.5
18 23.06 С 1 24 км 10/6 600 м
[Cb calv Ac As]
+27.0 +15.2 48 +30 +30 душно 1014.9 996.8 +33.0
00 24.06 СЗ 3 20 км 10/8 600 м
[Sc Ac As]
+22.8 +15.1 62 +27 +27 душно 1015.7 997.3
06 24.06 СВ 3 22 км 9/3 600 м
[Sc Ac As Cc]
+27.4 +17.2 54 +31 +35 душно 1015.9 997.8 +20.0
12 24.06 В 3 24 км 9/5 600 м
[Cb calv Ac As Cc]
+31.2 +15.8 39 +34 +37 душно 1016.0 998.1
18 24.06 СВ 1 18 км {гроза, ливн. осадки} 10/3 600 м
[Sc Ac As Cc]
+23.6 +20.5 83 +29 +29 душно 1018.4 1000.0 +33.3 0.4
00 25.06 С 3 20 км 4/3 600 м
[Sc Ac As]
+20.4 +16.2 77 +24 +24 комфорт 1020.6 1002.0
06 25.06 СВ 4 23 км ясно +23.6 +15.6 61 +27 +33 жарко 1022.2 1003.8 +18.9
12 25.06 С 4 26 км ясно +27.9 +9.8 32 +28 +37 жарко 1022.9 1004.7
18 25.06 СВ 2 25 км 6/0
[Ac trans Ci fib]
+21.4 +10.4 49 +23 +23 комфорт 1024.7 1006.1 +28.5

 

Местоположение метеостанции Золочев (Львовская область, Украина): широта 50.30 долгота 35.95 высота над уровнем моря 158 м.

В архиве по умолчанию представлена погода в Золочеве за последнюю неделю. Архивные данные за месяц целиком и за предыдущие месяцы, начиная с января 2011 года, Вы можете получить, выбрав интересующий диапазон дат из раскрывающегося списка и нажав кнопку "Ввод!".


*Определитесь, кто Вы:
робот инопланетянин человек

Внимание! Время в таблицах - всемирное. Для получения местного времени необходимо прибавить поправку, которая равна 2 ч.

Смотрите также архив погоды в соседних городах и на ближайших метеорологических станциях:

Погода в Боходухове (Харьковская область, Украина) (32 км)
Погода в Харькове (Харьковская область, Украина) (39 км)
Погода в Готне (Белгородская область, Россия) (57 км)
Погода в Белгороде (Белгородская область, Россия) (58 км)
Погода в Коломаке (Харьковская область, Украина) (72 км)
Погода в Комсомольском (Донецкая область, Украина) (88 км)
Погода в Обояни (Курская область, Россия) (103 км)
Погода в Великом Бурлуке (Харьковская область, Украина) (105 км)
Погода в Краснограде (Харьковская область, Украина) (108 км)
Погода в Лебедине (Сумская область, Украина) (109 км)

Пояснения к столбцам:

Ветер - указаны скорость ветра в м/с - средняя за 10 мин, порывы в срок и между сроками (в фигурных скобках) и направление, откуда дует ветер: С - северный, СВ - северо-восточный, В - восточный, ЮВ - юго-восточный, Ю - южный, ЮЗ - юго-западный, З - западный, СЗ - северо-западный.
Видимость - горизонтальная дальность видимости в метрах или километрах. При видимости от 1 до 10 км при отсутствии осадков обычно наблюдается дымка, при ухудшении видимости до 1 км и менее - туман. В сухую погоду видимость может ухудшаться дымом, пылью или мглою.
Явления - указаны атмосферные явления, наблюдавшиеся в срок или в последний час перед сроком; фигурными скобками обозначены явления, наблюдавшиеся между сроками (за 1-3 часа до срока); квадратными скобками обозначены град или гололедные отложения с указанием их диаметра в мм.
Облачность - указаны через наклонную черту общая и нижняя облачность в баллах и высота нижней границы облаков в метрах; квадратными скобками обозначены формы облаков: Ci - перистые, Cs - перисто-слоистые, Cc - перисто-кучевые, Ac - высококучевые, As - высокослоистые, Sc - слоисто-кучевые, Ns - слоисто-дождевые, Cu - кучевые, Cb - кучево-дождевые. Подробнее классификацию облаков см. в Атласе облаков (PDF).
T - Температура воздуха - температура, измеренная на высоте 2 м над землей.
Td - Температура точки росы - температура, при понижении до которой содержащийся в воздухе водяной пар достигнет насыщения.
f - Относительная влажность воздуха - влажноcть воздуха, измеренная на высоте 2 м над землей.
Te - Эффективная температура - температура, которую ощущает одетый по сезону человек в тени. Характеристика душности погоды. При расчете учитывается влияние влажности воздуха и скорости ветра на теплоощущения человека.
Tes - Эффективная температура на солнце - температура, которую ощущает человек, с поправкой на солнечный нагрев. Характеристика знойности погоды. Зависит от высоты солнца над горизонтом, облачности и скорости ветра. Ночью, в пасмурную погоду, а также при ветре 12 м/с и более поправка равна нулю.
P - Атмосферное давление - приведенное к уровню моря атмосферное давление.
Po - Атмосферное давление - измеренное на уровне метеостанции атмосферное давление.
Tmin - Минимальная температура - минимум температуры воздуха на высоте 2 м над землей.
Tmax - Максимальная температура - максимум температуры воздуха на высоте 2 м над землей.
R - Количество осадков - Количество выпавших осадков за период времени, мм. При наведении курсора мыши на число - период времени, за который выпало указанное количество осадков.
R24 - Количество осадков - Количество выпавших осадков за 24 часа, мм.
S - Снежный покров - Высота снежного покрова, см. При наведении курсора мыши на число - состояние снежного покрова и степень покрытия местности в баллах.